sat.trackr.live / text

‹ back to catalog

STARLINK-32683

NORAD 62445 · 2024-251P

PAYLOAD ACTIVE UNKNOWN

§ Identity

Operator
Country
US
Launch date
2024-12-29
Launch site
AFWTR
Launch vehicle
Mass (kg)
RCS (m²)

Purposes: comms

External: N2YO · Heavens-Above · Gunter

§ Orbital elements

Epoch: 2026-05-24T21:43:08.760000Z

Period
94.11 min
Inclination
53.1590°
Eccentricity
0.0001004
Mean motion
15.30203396 rev/d
Perigee alt
474.5 km
Apogee alt
475.9 km
Semi-major
6,853.3 km
B*
5.9316e-4
RAAN
341.5474°
Arg perigee
84.2030°
Mean anomaly
275.9085°
Rev number
7,961

§ Raw data

STARLINK-326831 62445U 24251P   26144.90496250  .00017251  00000+0  59316-3 0  99992 62445  53.1590 341.5474 0001004  84.2030 275.9085 15.30203396 79617

JSON: /api/v1/satellites/62445 · /tle

For live sub-satellite position, see the globe view (requires WebGL).

§ Visibility from observer

Set your observer location to see the next 7 days of passes ≥ 10°. The values pass through the URL so the page stays shareable.

No JS? Fill the form by hand. The geolocation button needs JavaScript.